User: anonymous   Login
Location: Table Mountain
(47.2500°N, 120.5778°W)
Time: 21:22:21
(UTC-08:00)
Language:

Tiangong 2 - Orbit

View from above orbital plane
View from above orbital plane
View from above satellite
View from above satellite

Ground track
Ground track

The orbit data is extracted from the following two-line orbital elements,

1 41765U 16057A   19046.89267980  .00004113  00000-0  52661-4 0  9994
2 41765  42.7852 330.1435 0006409 152.2394 291.7611 15.60694153138084
Epoch (UTC): 15 February 2019 21:25:27
Eccentricity: 0.0006409
inclination: 42.7852°
perigee height: 381 km
apogee height: 390 km
right ascension of ascending node: 330.1435°
argument of perigee: 152.2394°
revolutions per day: 15.60694153
mean anomaly at epoch: 291.7611°
orbit number at epoch: 13808

The dashed part of the orbit path shows where the satellite is in the earth's shadow,  

DLR